Weather History for Fairbanks Ft. Wainwright, AK

Change the Weather History Date:

Saturday, June 7, 2014

  Actual Average Record
Temperature  
Mean Temperature 59 °F -  
Max Temperature 75 °F 66 °F 80 °F (2004)
Min Temperature 43 °F 49 °F 43 °F (2014)
Degree Days  
Heating Degree Days 6    
Growing Degree Days 9 (Base 50)    
Moisture  
Dew Point 35 °F    
Average Humidity 43    
Maximum Humidity 86    
Minimum Humidity 16    
Precipitation  
Precipitation 0.00 in - - ()
Sea Level Pressure  
Sea Level Pressure 29.67 in    
Wind  
Wind Speed 3 mph (NW)    
Max Wind Speed 8 mph    
Max Gust Speed -    
Visibility 10 miles    
Events      
Averages and records for this station are not official NWS values.
T = Trace of Precipitation, MM = Missing Value Source: NWS Daily Summary

Daily Weather History Graph

Daily Weather History Graph

Search for Another Location

Airport:

Trip Planner

Search our weather history database for the weather conditions in past years. The results will help you decide how hot, cold, wet, or windy it might be!

Date:

Astronomy

Jun. 07, 2014 Rise Set
Actual Time 3:15 AM AKDT 12:25 AM AKDT
Civil Twilight Sun does not rise Sun does not rise
Nautical Twilight Sun does not rise Sun does not rise
Astronomical Twilight Sun does not rise Sun does not rise
Moon 4:17 PM AKDT (6/7) 2:28 AM AKDT (6/7)
Length of Visible Light 24h 00m
Length of Day
21h 10m
Waxing Gibbous, 69% of the Moon is Illuminated
Jun 7
Waxing Gibbous
Jun 12
Full
Jun 19
Last Quarter
Jun 27
New
Jul 5
First Quarter

Hourly Weather History & Observations

Time (AKDT) Temp. Windchill Dew Point Humidity Pressure Visibility Wind Dir Wind Speed Gust Speed Precip Events Conditions
12:56 AM 51.1 °F - 43.0 °F 74% 29.78 in 10.0 mi Calm Calm - N/A   Clear
1:56 AM 46.9 °F - 39.9 °F 77% 29.78 in 10.0 mi Calm Calm - N/A   Clear
2:56 AM 45.0 °F 43.5 °F 39.9 °F 82% 29.78 in 10.0 mi East 3.5 mph - N/A   Clear
3:56 AM 43.0 °F - 39.0 °F 86% 29.77 in 10.0 mi Calm Calm - N/A   Clear
4:56 AM 44.1 °F - 39.0 °F 82% 29.77 in 10.0 mi Calm Calm - N/A   Clear
5:56 AM 46.0 °F - 41.0 °F 83% 29.76 in 10.0 mi Calm Calm - N/A   Mostly Cloudy
6:56 AM 48.9 °F - 41.0 °F 74% 29.76 in 10.0 mi NE 4.6 mph - N/A   Clear
7:56 AM 54.0 °F - 42.1 °F 64% 29.75 in 10.0 mi East 4.6 mph - N/A   Clear
9:56 AM 63.0 °F - 39.9 °F 43% 29.72 in 10.0 mi West 3.5 mph - N/A   Clear
10:56 AM 66.0 °F - 36.0 °F 33% 29.70 in 10.0 mi South 6.9 mph - N/A   Clear
11:56 AM 68.0 °F - 36.0 °F 31% 29.68 in 10.0 mi SSE 4.6 mph - N/A   Clear
12:56 PM 71.1 °F - 33.1 °F 25% 29.66 in 10.0 mi SSE 8.1 mph - N/A   Clear
1:56 PM 72.0 °F - 26.1 °F 18% 29.65 in 10.0 mi Variable 3.5 mph - N/A   Clear
2:56 PM 73.0 °F - 26.1 °F 17% 29.63 in 10.0 mi Calm Calm - N/A   Clear
3:56 PM 73.9 °F - 27.0 °F 18% 29.61 in 10.0 mi Variable 3.5 mph - N/A   Clear
4:56 PM 75.0 °F - 26.1 °F 16% 29.60 in 10.0 mi Calm Calm - N/A   Clear
5:56 PM 75.0 °F - 27.0 °F 17% 29.58 in 10.0 mi Variable 3.5 mph - N/A   Clear
6:56 PM 73.9 °F - 30.0 °F 20% 29.57 in 10.0 mi Variable 3.5 mph - N/A   Partly Cloudy
7:56 PM 73.0 °F - 28.9 °F 20% 29.55 in 10.0 mi NW 5.8 mph - N/A   Partly Cloudy
8:56 PM 72.0 °F - 30.9 °F 22% 29.55 in 10.0 mi NNW 8.1 mph - N/A   Mostly Cloudy
9:56 PM 71.1 °F - 32.0 °F 24% 29.54 in 10.0 mi North 5.8 mph - N/A   Partly Cloudy
10:56 PM 66.9 °F - 37.9 °F 34% 29.55 in 10.0 mi WNW 8.1 mph - N/A   Overcast
11:56 PM 64.9 °F - 37.9 °F 37% 29.56 in 10.0 mi West 8.1 mph - N/A   Scattered Clouds